Location: A�t Lahcen
(32.8243°N, 5.4246°W)
Time: 00:48:14
(UTC+00:00)

Cosmos 1943 Rocket - Pass Details

Date: 27 January 2021
Orbit: 810 x 845 km, 71.0° (Epoch: 26 February)

Event Time Altitude Azimuth Distance (km) Brightness Sun altitude
Rises 06:34:07 0° 340° (NNW) 3,404 5.0 -9.9°
Reaches altitude 10° 06:36:34 10° 341° (NNW) 2,468 4.3 -9.4°
Maximum altitude 06:42:15 84° 70° (ENE) 853 2.3 -8.3°
Drops below altitude 10° 06:47:54 10° 159° (SSE) 2,454 5.2 -7.1°
Sets 06:50:20 0° 160° (SSE) 3,383 5.9 -6.6°
